Zurück zum Katalog

STARLINK-37847

AktivKommunikationVLEO
NORAD 100037·PAYLOAD·🇺🇸 United States

Gestartet Jul 14, 2026 von Cape Canaveral Space Force Station

Loading…

Nächste Überflüge (nächste 24 Stunden)

TLE

AktuellSource: Space-Track

Epoche: Sep 14, 2026, 19:07 UTC

1 A0037U 26161K   26257.79676552  .00018501  00000-0  55713-3 0  9994
2 A0037  53.1605  24.4677 0000826 123.5220 236.5861 15.34412541  9733

Verfolge STARLINK-37847 in Echtzeit mit AllMySat

Download on the App Store